Precipitable_Water
0.25 0.25 0.25 0.26 0.27 0.28 0.28 0.30 0.32 0.34 0.35 0.35 0.37 0.39 0.40 0.40 0.39 0.40 0.46 0.48 0.45 0.41 0.41 0.42 0.42 0.45 0.45 0.51 0.54 0.50 0.47 0.48 0.41 0.46 0.51 0.50 0.49 0.53 0.58 0.64 0.68 0.69 0.71
0.26 0.24 0.25 0.26 0.27 0.27 0.27 0.29 0.31 0.31 0.33 0.34 0.35 0.37 0.39 0.39 0.38 0.38 0.44 0.47 0.46 0.42 0.40 0.40 0.41 0.44 0.44 0.50 0.54 0.49 0.48 0.45 0.44 0.41 0.48 0.50 0.49 0.53 0.54 0.55 0.61 0.64 0.63
0.28 0.25 0.25 0.25 0.26 0.26 0.27 0.29 0.30 0.31 0.31 0.32 0.34 0.35 0.36 0.36 0.37 0.40 0.47 0.45 0.48 0.45 0.42 0.40 0.39 0.40 0.42 0.48 0.51 0.48 0.46 0.45 0.43 0.45 0.43 0.48 0.47 0.49 0.49 0.50 0.51 0.55 0.60
0.29 0.26 0.24 0.25 0.26 0.28 0.29 0.30 0.30 0.30 0.30 0.30 0.32 0.33 0.35 0.35 0.36 0.40 0.40 0.41 0.44 0.44 0.41 0.42 0.39 0.39 0.42 0.47 0.49 0.48 0.47 0.45 0.43 0.40 0.39 0.40 0.41 0.42 0.43 0.43 0.43 0.48 0.48
0.28 0.27 0.25 0.26 0.28 0.29 0.30 0.30 0.30 0.30 0.30 0.30 0.30 0.31 0.34 0.34 0.35 0.37 0.38 0.40 0.42 0.42 0.39 0.39 0.39 0.42 0.45 0.47 0.49 0.49 0.47 0.45 0.44 0.41 0.37 0.35 0.35 0.34 0.32 0.37 0.37 0.39 0.46
0.27 0.27 0.27 0.27 0.28 0.29 0.30 0.30 0.30 0.29 0.29 0.30 0.29 0.31 0.33 0.34 0.35 0.38 0.40 0.40 0.42 0.42 0.36 0.35 0.36 0.41 0.45 0.43 0.49 0.52 0.50 0.47 0.44 0.42 0.41 0.38 0.38 0.36 0.36 0.34 0.34 0.31 0.29
0.27 0.28 0.28 0.28 0.27 0.28 0.30 0.31 0.30 0.28 0.29 0.28 0.29 0.32 0.33 0.35 0.36 0.38 0.40 0.40 0.41 0.42 0.36 0.34 0.32 0.36 0.44 0.45 0.42 0.46 0.47 0.49 0.49 0.45 0.41 0.41 0.40 0.41 0.39 0.33 0.32 0.32 0.31
0.27 0.29 0.29 0.29 0.29 0.30 0.30 0.31 0.32 0.30 0.28 0.29 0.30 0.32 0.35 0.36 0.38 0.38 0.38 0.38 0.40 0.40 0.37 0.34 0.31 0.33 0.41 0.44 0.38 0.36 0.42 0.45 0.47 0.46 0.45 0.44 0.45 0.45 0.43 0.40 0.39 0.38 0.35
0.26 0.29 0.30 0.30 0.30 0.31 0.31 0.32 0.34 0.32 0.30 0.30 0.32 0.33 0.34 0.36 0.37 0.38 0.38 0.36 0.37 0.37 0.36 0.33 0.32 0.32 0.38 0.43 0.38 0.32 0.35 0.39 0.46 0.48 0.48 0.48 0.47 0.46 0.45 0.42 0.37 0.35 0.32
0.25 0.28 0.32 0.33 0.32 0.31 0.32 0.34 0.36 0.35 0.33 0.33 0.33 0.34 0.36 0.37 0.38 0.39 0.39 0.36 0.35 0.34 0.33 0.33 0.31 0.34 0.35 0.39 0.37 0.33 0.31 0.32 0.37 0.41 0.43 0.45 0.45 0.45 0.44 0.42 0.40 0.34 0.33
0.28 0.28 0.31 0.33 0.34 0.34 0.34 0.36 0.37 0.36 0.35 0.34 0.34 0.35 0.37 0.40 0.40 0.41 0.40 0.37 0.35 0.33 0.30 0.29 0.30 0.32 0.31 0.35 0.38 0.33 0.30 0.33 0.33 0.36 0.38 0.40 0.41 0.42 0.42 0.43 0.43 0.39 0.35
0.30 0.28 0.28 0.31 0.34 0.36 0.35 0.36 0.37 0.37 0.35 0.35 0.35 0.35 0.38 0.40 0.42 0.42 0.41 0.39 0.39 0.34 0.29 0.30 0.30 0.29 0.30 0.32 0.36 0.37 0.32 0.30 0.29 0.30 0.31 0.32 0.33 0.34 0.37 0.40 0.40 0.40 0.40
0.27 0.29 0.29 0.30 0.32 0.35 0.34 0.35 0.36 0.37 0.37 0.36 0.35 0.35 0.35 0.39 0.41 0.42 0.41 0.39 0.38 0.36 0.33 0.31 0.31 0.29 0.29 0.29 0.32 0.38 0.35 0.28 0.26 0.25 0.26 0.28 0.31 0.32 0.34 0.37 0.39 0.40 0.40
0.24 0.27 0.30 0.30 0.29 0.32 0.34 0.35 0.35 0.37 0.37 0.37 0.36 0.35 0.35 0.38 0.40 0.42 0.40 0.38 0.35 0.33 0.32 0.30 0.29 0.29 0.30 0.30 0.31 0.34 0.35 0.33 0.28 0.26 0.26 0.29 0.31 0.31 0.31 0.32 0.32 0.33 0.32
0.24 0.25 0.27 0.30 0.30 0.30 0.31 0.33 0.33 0.36 0.38 0.37 0.38 0.38 0.36 0.36 0.40 0.43 0.40 0.35 0.33 0.30 0.28 0.27 0.26 0.26 0.25 0.27 0.28 0.34 0.37 0.34 0.31 0.28 0.27 0.27 0.27 0.28 0.29 0.30 0.30 0.30 0.28
0.24 0.24 0.25 0.26 0.28 0.29 0.30 0.31 0.37 0.38 0.40 0.42 0.43 0.42 0.40 0.42 0.42 0.41 0.39 0.36 0.33 0.30 0.25 0.25 0.24 0.24 0.24 0.26 0.26 0.28 0.34 0.39 0.35 0.33 0.29 0.28 0.27 0.26 0.27 0.29 0.29 0.28 0.27
0.26 0.25 0.25 0.25 0.26 0.26 0.28 0.29 0.29 0.36 0.40 0.42 0.43 0.43 0.43 0.41 0.42 0.39 0.38 0.35 0.32 0.29 0.25 0.24 0.23 0.24 0.24 0.26 0.27 0.28 0.29 0.36 0.40 0.36 0.33 0.30 0.28 0.28 0.27 0.27 0.27 0.26 0.25
0.31 0.29 0.27 0.26 0.25 0.26 0.26 0.27 0.30 0.31 0.32 0.35 0.42 0.43 0.43 0.42 0.41 0.39 0.37 0.35 0.30 0.29 0.26 0.24 0.24 0.24 0.25 0.25 0.27 0.28 0.30 0.32 0.37 0.38 0.35 0.33 0.31 0.28 0.27 0.26 0.26 0.25 0.25
0.34 0.32 0.32 0.29 0.27 0.26 0.26 0.27 0.29 0.30 0.32 0.34 0.38 0.42 0.43 0.44 0.42 0.39 0.38 0.34 0.30 0.26 0.26 0.25 0.26 0.26 0.25 0.26 0.27 0.29 0.29 0.31 0.34 0.36 0.36 0.35 0.33 0.30 0.28 0.27 0.25 0.25 0.25
0.37 0.35 0.34 0.32 0.31 0.29 0.27 0.26 0.27 0.28 0.30 0.32 0.35 0.37 0.41 0.42 0.39 0.37 0.38 0.37 0.32 0.28 0.27 0.26 0.26 0.27 0.27 0.27 0.27 0.28 0.29 0.30 0.32 0.36 0.38 0.36 0.35 0.32 0.29 0.28 0.27 0.25 0.24
0.41 0.38 0.37 0.34 0.33 0.32 0.29 0.27 0.27 0.28 0.28 0.30 0.34 0.38 0.40 0.39 0.39 0.40 0.39 0.38 0.34 0.29 0.28 0.27 0.26 0.27 0.28 0.28 0.28 0.28 0.28 0.29 0.31 0.36 0.36 0.37 0.36 0.32 0.31 0.30 0.30 0.28 0.26
0.46 0.42 0.39 0.37 0.35 0.34 0.32 0.30 0.29 0.28 0.29 0.31 0.33 0.37 0.39 0.39 0.39 0.41 0.41 0.39 0.36 0.32 0.31 0.29 0.27 0.28 0.29 0.28 0.27 0.27 0.27 0.29 0.32 0.35 0.34 0.35 0.35 0.32 0.30 0.29 0.29 0.28 0.27
0.49 0.46 0.42 0.40 0.38 0.37 0.36 0.33 0.31 0.30 0.30 0.32 0.33 0.35 0.37 0.36 0.37 0.40 0.43 0.40 0.37 0.34 0.33 0.31 0.29 0.29 0.30 0.30 0.30 0.30 0.29 0.31 0.36 0.36 0.33 0.32 0.30 0.28 0.28 0.28 0.28 0.27 0.28
0.55 0.49 0.45 0.42 0.40 0.37 0.36 0.35 0.34 0.33 0.32 0.32 0.33 0.34 0.36 0.35 0.36 0.40 0.42 0.42 0.38 0.36 0.35 0.34 0.31 0.30 0.30 0.30 0.31 0.32 0.33 0.36 0.37 0.36 0.35 0.31 0.28 0.27 0.26 0.27 0.28 0.28 0.28
0.61 0.56 0.50 0.46 0.42 0.39 0.37 0.37 0.37 0.35 0.33 0.33 0.33 0.35 0.35 0.34 0.36 0.40 0.41 0.40 0.39 0.37 0.36 0.35 0.33 0.32 0.31 0.30 0.30 0.31 0.33 0.34 0.34 0.33 0.34 0.29 0.28 0.27 0.27 0.27 0.26 0.27 0.27
0.63 0.60 0.55 0.50 0.46 0.42 0.39 0.39 0.38 0.37 0.35 0.34 0.34 0.35 0.34 0.33 0.36 0.40 0.38 0.38 0.39 0.39 0.38 0.36 0.35 0.33 0.32 0.31 0.31 0.32 0.33 0.34 0.34 0.34 0.32 0.29 0.27 0.27 0.27 0.27 0.26 0.26 0.25
Wind_Speed
14 14 15 16 17 19 20 21 23 24 25 26 27 28 29 30 32 33 35 37 37 36 33 28 24 21 20 21 20 19 16 14 12 14 10 8 6 5 8 9 7 9 7
14 14 15 16 17 19 20 21 22 24 25 26 26 28 29 30 32 33 34 37 37 36 33 27 22 19 19 20 21 21 17 15 11 11 9 8 6 5 6 10 11 11 13
14 14 15 16 17 19 20 21 22 23 24 25 26 27 28 30 31 32 34 37 38 35 32 25 20 18 18 20 20 20 19 16 13 10 9 8 7 7 7 9 12 16 15
14 15 15 16 17 18 19 21 22 23 24 24 25 26 27 29 30 31 34 36 36 34 30 22 19 16 17 18 19 20 19 18 15 12 10 9 8 8 7 7 10 11 15
14 15 16 16 17 18 19 20 22 23 23 24 24 26 27 28 29 31 33 35 35 34 28 22 18 16 16 17 18 19 18 18 17 15 12 10 8 7 6 6 7 8 11
14 15 16 16 17 17 18 20 21 22 23 23 24 25 26 27 29 30 32 33 33 32 28 21 18 16 16 17 17 18 18 18 17 16 14 12 9 7 6 6 5 5 6
15 15 15 15 16 17 18 19 20 21 22 23 23 24 25 26 28 29 31 32 32 31 28 23 18 16 15 16 16 16 17 17 17 17 16 14 11 9 7 5 4 4 5
15 15 15 15 16 16 17 18 20 21 22 22 23 24 24 25 27 28 29 31 31 30 27 24 19 16 14 16 16 15 15 16 16 16 17 15 14 11 8 6 4 4 4
16 16 15 15 15 16 17 18 19 20 21 22 22 23 24 25 25 26 27 29 29 29 27 24 20 16 15 15 15 15 14 14 15 15 16 16 15 14 13 9 8 6 5
17 17 16 16 16 16 17 18 19 20 21 21 22 22 23 23 24 25 26 26 27 28 27 24 21 17 15 15 14 13 14 13 13 13 13 13 14 14 13 12 11 9 7
19 18 17 17 17 17 17 18 18 19 20 21 22 22 22 22 23 23 24 24 25 26 25 24 21 19 16 14 14 13 13 13 12 12 12 11 11 11 12 11 10 9 8
20 20 19 18 18 17 17 18 18 19 20 21 21 22 22 21 21 22 22 23 24 24 24 23 22 20 17 15 13 14 13 12 11 11 11 10 10 10 10 9 10 9 8
22 21 20 20 19 18 18 18 18 19 19 20 20 21 21 20 20 20 21 22 23 22 22 22 21 19 17 15 14 14 14 13 11 11 10 10 10 10 9 9 9 9 9
23 22 21 21 20 20 19 19 18 18 19 19 19 20 20 19 19 19 19 21 21 20 21 21 20 18 16 15 15 15 14 14 13 11 10 9 9 10 9 9 9 9 10
24 23 22 22 21 21 20 19 19 19 18 19 19 19 19 19 18 18 19 19 19 19 19 19 18 17 17 15 15 15 15 16 14 13 12 10 9 9 9 9 9 9 9
24 24 23 22 22 21 20 20 20 19 18 18 18 18 18 18 18 18 17 18 18 18 17 17 17 17 16 16 15 15 15 15 16 15 14 12 10 9 9 9 9 9 9
25 25 24 23 22 21 20 19 19 19 18 18 18 18 17 17 17 16 16 16 16 16 15 16 16 16 15 15 15 15 15 15 16 17 15 14 11 9 9 8 9 9 9
26 25 24 23 22 21 21 20 19 18 17 17 17 16 16 15 15 15 15 15 14 14 14 14 14 15 15 15 15 15 16 16 16 17 17 15 13 10 9 8 8 8 9
28 26 25 24 23 22 21 20 19 18 17 16 16 15 15 14 14 13 14 13 13 12 12 13 13 14 14 14 15 15 16 16 17 17 18 17 15 12 9 8 7 8 9
30 29 26 24 23 23 21 21 20 19 17 17 15 15 14 13 13 13 12 12 12 11 11 11 12 12 13 13 14 15 15 16 17 18 18 18 17 15 11 8 7 7 7
31 30 29 27 25 24 23 21 20 19 18 17 17 15 14 13 13 13 11 11 11 11 10 10 10 11 12 12 13 14 15 15 17 18 18 18 18 16 14 9 6 5 6
33 32 30 29 27 25 24 23 21 20 19 18 17 15 14 14 13 12 12 11 11 10 9 9 9 10 10 11 12 13 14 14 16 17 17 18 18 17 15 12 7 4 5
36 34 32 31 29 27 25 24 22 21 20 19 18 16 16 15 14 13 12 11 10 10 9 8 8 9 9 10 10 11 12 13 15 15 16 17 17 17 15 13 10 7 5
37 36 34 33 31 29 27 25 24 23 21 20 19 18 17 16 15 14 13 12 11 10 9 8 8 8 8 9 9 10 11 12 13 14 15 15 15 16 15 13 11 9 9
38 37 36 34 33 31 29 27 25 24 22 21 20 19 18 17 16 15 13 12 11 10 9 9 8 8 8 8 8 9 10 11 12 13 14 14 13 14 14 13 11 10 9
38 38 37 36 34 32 30 28 26 25 24 22 21 20 19 18 17 16 14 13 12 11 10 10 9 8 8 8 8 8 9 10 11 11 12 12 12 12 12 12 12 11 10
Wind_Direction
312 316 320 324 328 332 334 336 338 340 341 342 344 345 346 347 348 349 349 350 350 350 350 349 350 353 355 356 355 351 341 336 332 336 328 325 310 278 235 229 219 208 204
309 314 317 322 326 329 332 335 337 339 340 342 344 345 347 348 349 350 351 352 351 352 352 353 354 356 358 359 358 358 355 347 335 331 333 328 318 292 259 239 233 234 233
306 311 315 319 323 327 331 334 336 338 340 341 344 346 347 349 350 351 353 353 354 355 355 358 359 359 1 1 2 3 2 359 352 336 336 336 325 310 281 261 247 240 246
303 308 312 316 320 325 329 333 336 338 340 341 343 345 347 349 351 353 354 354 356 357 359 2 2 2 2 3 5 6 7 6 2 354 337 327 321 320 302 283 262 253 247
299 304 309 314 318 323 327 331 335 337 339 341 343 345 347 349 351 353 355 356 357 358 360 1 3 2 2 3 4 7 8 9 9 5 359 347 332 327 320 307 283 270 250
295 301 308 313 316 320 325 330 334 337 338 340 342 344 346 349 350 352 354 357 358 360 360 359 360 2 2 2 4 6 8 10 10 11 8 3 355 344 322 318 303 289 265
291 298 305 311 315 319 324 328 332 336 338 339 341 343 345 347 349 351 354 357 359 360 1 0 356 357 359 1 3 6 10 13 14 15 14 14 8 0 349 340 319 304 283
286 293 301 308 313 318 322 326 331 334 336 338 339 341 344 346 348 351 353 357 359 1 3 3 2 357 355 359 2 5 10 14 16 21 24 25 24 23 18 10 354 337 318
280 287 295 302 309 316 320 324 328 332 335 337 338 340 342 345 347 349 352 356 359 1 3 4 4 2 358 358 1 3 6 10 17 21 24 29 32 35 36 35 31 28 19
276 282 289 296 303 310 317 322 326 330 333 336 337 338 340 343 346 348 351 355 358 1 3 4 6 5 2 360 0 2 4 5 8 14 19 24 28 32 35 39 39 39 36
274 278 284 290 296 304 312 318 324 328 331 334 336 337 339 342 345 347 350 354 357 360 2 5 6 6 3 1 2 360 358 2 5 7 9 15 18 22 27 30 32 32 31
271 274 279 284 290 297 304 311 318 323 328 330 334 336 338 340 343 346 349 352 356 359 2 5 5 4 5 5 4 2 360 356 359 2 8 9 11 13 15 20 24 23 19
268 271 275 279 284 290 297 304 311 317 323 327 331 334 337 339 342 344 348 352 354 356 1 3 6 7 8 9 7 7 5 2 357 356 357 0 2 3 4 9 7 7 6
266 269 272 275 279 284 290 297 303 310 317 323 327 331 335 338 340 344 347 350 353 355 357 358 2 5 6 7 9 9 9 6 2 356 349 349 353 358 360 0 360 1 1
264 266 269 273 275 280 284 290 296 302 309 317 322 327 331 335 337 340 343 347 350 351 354 359 3 6 8 10 8 9 9 9 5 360 354 346 344 348 352 353 354 355 358
263 265 266 270 273 276 281 287 289 296 303 309 315 320 324 328 331 335 340 344 347 350 354 358 2 5 8 8 7 6 6 6 5 2 356 350 340 339 342 347 352 354 354
261 263 264 266 269 272 277 281 287 291 295 301 309 314 317 322 327 331 336 340 344 350 353 357 1 5 7 8 7 7 6 5 4 2 360 353 345 335 336 340 345 349 352
259 260 262 263 266 269 272 276 281 287 292 297 302 309 314 317 322 327 332 337 342 347 352 356 359 3 6 7 7 7 6 5 5 3 2 358 352 341 332 335 339 344 348
256 259 260 261 263 265 269 272 276 280 285 292 297 302 311 313 317 321 327 332 338 343 349 354 358 1 4 6 7 7 7 7 6 6 4 2 357 351 339 332 335 341 346
254 255 256 258 260 263 265 268 272 275 280 284 288 291 299 309 313 315 320 326 333 338 344 349 353 358 1 4 6 8 8 9 9 7 6 5 3 0 351 339 333 338 344
252 252 253 255 257 259 262 265 268 271 275 279 282 284 283 294 307 308 310 319 324 328 333 340 347 353 358 1 4 8 9 9 10 10 10 10 9 8 6 354 338 335 341
249 250 251 252 254 256 258 261 264 266 270 273 277 278 278 285 295 303 303 307 313 318 323 330 338 344 351 356 360 4 8 10 10 12 13 14 14 15 18 16 6 341 338
247 248 248 249 251 252 254 257 260 262 265 268 270 272 275 279 283 292 297 297 303 308 312 317 325 333 341 349 355 0 5 7 8 10 12 14 17 20 22 27 29 21 357
245 245 245 246 248 248 251 254 256 258 260 263 265 267 269 272 276 280 288 290 291 297 300 306 312 320 328 336 345 352 358 2 4 7 9 13 17 20 23 27 32 29 22
244 243 243 244 245 245 247 250 253 255 257 259 261 263 265 266 270 273 275 282 282 286 291 294 300 307 315 322 332 341 348 353 359 3 6 10 14 17 21 23 25 25 24
243 242 242 241 242 242 243 246 249 252 253 255 257 258 259 261 264 266 266 268 276 278 282 284 288 294 302 308 317 328 337 345 351 357 1 6 9 12 16 20 20 20 19